Regional Weather Roundup
Issued by NWS

Home | Current Version | Previous Version | Graphics & Text | Print | Product List | Glossary On
Versions: 1 2 3 4 5 6 7 8 9 10 11 12 13 14 15 16 17 18 19 20 21 22 23 24 25 26 27
000
ASUS45 KCYS 221210
RWRWY

WYOMING REGIONAL WEATHER ROUNDUP
NATIONAL WEATHER SERVICE CHEYENNE WY
500 AM MST WED FEB 22 2017

NOTE:  "FAIR" INDICATES FEW OR NO CLOUDS BELOW 12,000 FEET
WITH NO SIGNIFICANT WEATHER AND/OR OBSTRUCTIONS TO VISIBILITY.

WYZ001-221300-
YELLOWSTONE NATIONAL PARK

CITY           SKY/WX    TMP DP  RH WIND       PRES   REMARKS
LK YELLOWSTONE   N/A     19  15  84 VRB5      29.88R WCI  12
6HR MIN TEMP:  19; 6HR MAX TEMP:  23;

W YELLOWSTONE  NOT AVBL

$$
WYZ002>013-054>058-071-098>099-221300-
NORTHERN WYOMING

CITY           SKY/WX    TMP DP  RH WIND       PRES   REMARKS
JACKSON        CLOUDY    28  21  74 S14       29.93S WCI  17
CODY           FAIR      36  18  48 W14G25    29.81F WCI  27
GREYBULL       FAIR      37  23  56 W8        29.81S WCI  31
6HR MIN TEMP:  34; 6HR MAX TEMP:  41;

WORLAND        FAIR      30  23  75 CALM      29.83R
6HR MIN TEMP:  29; 6HR MAX TEMP:  40;

SHERIDAN       FAIR      38  17  42 W12       29.77R WCI  30
6HR MIN TEMP:  37; 6HR MAX TEMP:  48;

BUFFALO        FAIR      39  13  34 N13       29.76R WCI  31
6HR MIN TEMP:  39; 6HR MAX TEMP:  47;

GILLETTE       FAIR      38  25  59 W10       29.76R WCI  31
6HR MIN TEMP:  38; 6HR MAX TEMP:  48;

HULETT         FAIR      41  32  70 SW6       29.74S
NEWCASTLE      FAIR      41  27  56 W6        29.78S

$$
WYZ014>020-022>026-101>103-221300-
CENTRAL WYOMING

CITY           SKY/WX    TMP DP  RH WIND       PRES   REMARKS
BIG PINEY      MOCLDY    21  15  78 N5        29.95R WCI  15
6HR MIN TEMP:  21; 6HR MAX TEMP:  27;

PINEDALE       PTSUNNY   23  19  86 NE8       29.93S WCI  14
DUBOIS         PTSUNNY   25  16  68 W22G31    29.85S WCI  10
LANDER         FAIR      32  22  66 SW16      29.86F WCI  21
6HR MIN TEMP:  31; 6HR MAX TEMP:  36;

RIVERTON       FAIR      30  22  72 W12       29.87F WCI  20
6HR MIN TEMP:  30; 6HR MAX TEMP:  34;

CASPER         CLOUDY    36  22  56 SW25G35   29.84S WCI  24
6HR MIN TEMP:  36; 6HR MAX TEMP:  38;

DOUGLAS        CLOUDY    39  26  59 W3        29.87R
6HR MIN TEMP:  37; 6HR MAX TEMP:  42; 6HR PCP: TRACE;


$$
WYZ021-027>030-104>119-221300-
SOUTHERN WYOMING

CITY           SKY/WX    TMP DP  RH WIND       PRES   REMARKS
EVANSTON       FLURRIES  24  21  88 N6        29.98S WCI  17
6HR MIN TEMP:  24; 6HR MAX TEMP:  27; 6HR PCP:  0.10;

FORT BRIDGER   CLOUDY    25  25 100 W8        30.01S WCI  17
ROCK SPRINGS   CLOUDY    27  24  89 W10       29.97S WCI  17
6HR MIN TEMP:  26; 6HR MAX TEMP:  28; 6HR PCP:  0.01;

DIXON          LGT SNOW  30  29  95 CALM      30.02S
RAWLINS        FLURRIES  28  24  85 SW13      29.95S WCI  17
6HR MIN TEMP:  28; 6HR MAX TEMP:  30; 6HR PCP: TRACE;

SARATOGA       LGT SNOW  28  28 100 CALM      29.98S VSB 1
LARAMIE        CLOUDY    28  22  78 N7        29.93F WCI  21
6HR MIN TEMP:  28; 6HR MAX TEMP:  44; 6HR PCP: TRACE;

CHEYENNE       FAIR      33  22  63 W16G24    29.91S WCI  23
6HR MIN TEMP:  33; 6HR MAX TEMP:  48;

TORRINGTON     CLOUDY    42  28  57 W17G24    29.85S
6HR MIN TEMP:  40; 6HR MAX TEMP:  51;

PINE BLUFFS    FAIR      36  27  69 NW24G36   29.87F WCI  24

$$




USA.gov is the U.S. government's official web portal to all federal, state and local government web resources and services.